GOMX-4B

Last updated on Wed Oct 09 2024 00:03:35 GMT+0000 (Coordinated Universal Time)

1 43196U 18015E 24282.58847578 .03976909 26111-5 79291-3 0 9998 2 43196 97.5784 107.6879 0008923 259.8443 100.1844 16.31424227373429

Satellite not in orbit

GOMX-4B